EW0609 Weather Reports


Display with metric or nautical units.
time (UTC)temp
F
wind
direction
speed
MPH
gust
MPH
rain 1hr
in
rain 24hr
in
rain mn
in
humidity
%
barometer
mb
20260901095259 75 148 2.0 6.0 0.00 0.00 0.00 54 1018.8
20260901094758 75 166 1.0 6.0 0.00 0.00 0.00 53 1018.8
20260901094258 75 166 2.0 10.0 0.00 0.00 0.00 52 1019.0
20260901093757 75 203 4.0 10.0 0.00 0.00 0.00 52 1019.0
20260901093259 75 182 4.0 10.0 0.00 0.00 0.00 52 1019.0
20260901092759 76 179 4.0 10.0 0.00 0.00 0.00 51 1019.0
20260901092300 76 189 4.0 10.0 0.00 0.00 0.00 51 1019.0
20260901091758 77 204 4.0 10.0 0.00 0.00 0.00 51 1019.0
20260901091258 77 124 5.0 9.0 0.00 0.00 0.00 50 1018.8
20260901090758 77 152 4.0 9.0 0.00 0.00 0.00 50 1019.0
20260901090258 76 190 4.0 9.0 0.00 0.00 0.00 51 1019.0
20260901090124 76 109 3.0 7.0 0.00 0.00 0.00 51 1019.0
20260901085258 76 185 4.0 7.0 0.00 0.00 0.00 51 1019.0
20260901084758 76 166 4.0 9.0 0.00 0.00 0.00 50 1018.8
20260901084259 76 179 3.0 10.0 0.00 0.00 0.00 50 1018.8
20260901083758 76 102 4.0 10.0 0.00 0.00 0.00 50 1018.7
20260901083624 76 128 3.0 11.0 0.00 0.00 0.00 50 1018.7
20260901082803 77 124 4.0 11.0 0.00 0.00 0.00 50 1018.8
20260901082259 77 148 4.0 10.0 0.00 0.00 0.00 49 1018.8
20260901081758 78 176 4.0 10.0 0.00 0.00 0.00 48 1018.8
20260901081300 78 182 3.0 11.0 0.00 0.00 0.00 48 1018.7
20260901080800 78 140 6.0 12.0 0.00 0.00 0.00 48 1018.7
20260901080530 78 130 4.0 12.0 0.00 0.00 0.00 48 1018.7
20260901080514 78 185 5.0 12.0 0.00 0.00 0.00 48 1018.7
20260901075258 78 168 4.0 10.0 0.00 0.00 0.00 48 1018.7
20260901074759 78 189 4.0 10.0 0.00 0.00 0.00 49 1018.7
20260901074259 78 157 5.0 11.0 0.00 0.00 0.00 48 1018.7
20260901073758 78 182 5.0 11.0 0.00 0.00 0.00 49 1018.8
20260901073258 78 123 5.0 10.0 0.00 0.00 0.00 49 1018.7
20260901073127 78 75 4.0 7.0 0.00 0.00 0.00 50 1018.8
20260901072259 77 110 3.0 7.0 0.00 0.00 0.00 50 1018.8
20260901072141 77 178 2.0 6.0 0.00 0.00 0.00 50 1018.8
20260901071301 77 161 1.0 4.0 0.00 0.00 0.00 51 1018.8
20260901070803 76 102 2.0 4.0 0.00 0.00 0.00 52 1019.0
20260901070303 76 149 1.0 3.0 0.00 0.00 0.00 54 1019.0
20260901065758 75 186 0.0 4.0 0.00 0.00 0.00 55 1019.1
20260901065259 75 155 1.0 4.0 0.00 0.00 0.00 56 1019.1
20260901064759 75 149 0.0 0.0 0.00 0.00 0.00 55 1019.1
20260901064259 74 134 0.0 0.0 0.00 0.00 0.00 57 1019.2
20260901063758 74 183 0.0 0.0 0.00 0.00 0.00 59 1019.1
20260901063257 75 134 0.0 0.0 0.00 0.00 0.00 57 1019.1
20260901062758 75 162 0.0 0.0 0.00 0.00 0.00 56 1019.2
20260901062527 75 176 0.0 0.0 0.00 0.00 0.00 57 1019.1
20260901062300 75 176 0.0 0.0 0.00 0.00 0.00 57 1019.1
20260901061759 76 145 0.0 3.0 0.00 0.00 0.00 54 1019.2
20260901061258 76 123 1.0 3.0 0.00 0.00 0.00 54 1019.1
20260901060759 76 128 1.0 3.0 0.00 0.00 0.00 54 1019.1
20260901060627 76 128 1.0 3.0 0.00 0.00 0.00 54 1019.1
20260901055803 76 117 1.0 2.0 0.00 0.00 0.00 54 1019.1
20260901055633 76 123 0.0 4.0 0.00 0.00 0.00 54 1019.1
20260901054758 77 141 1.0 4.0 0.00 0.00 0.00 53 1019.0
20260901054257 77 128 0.0 4.0 0.00 0.00 0.00 53 1019.0
20260901053757 77 154 1.0 4.0 0.00 0.00 0.00 52 1019.0
20260901053639 77 127 0.0 2.0 0.00 0.00 0.00 53 1019.0
20260901052757 77 183 0.0 3.0 0.00 0.00 0.00 53 1019.0
20260901052259 77 182 0.0 4.0 0.00 0.00 0.00 53 1019.0
20260901051757 78 116 2.0 4.0 0.00 0.00 0.00 52 1019.0
20260901051636 78 109 2.0 4.0 0.00 0.00 0.00 51 1018.8
20260901050757 79 113 2.0 4.0 0.00 0.00 0.00 50 1018.8
20260901050259 79 118 0.0 5.0 0.00 0.00 0.00 50 1019.0
20260901045759 79 155 2.0 5.0 0.00 0.00 0.00 50 1018.8
20260901045637 79 103 3.0 5.0 0.00 0.00 0.00 49 1018.8
20260901044757 80 138 3.0 7.0 0.00 0.00 0.00 49 1018.8
20260901044654 80 154 3.0 7.0 0.00 0.00 0.00 49 1018.7
20260901043759 80 113 3.0 5.0 0.00 0.00 0.00 49 1018.7
20260901043257 80 125 1.0 6.0 0.00 0.00 0.00 49 1018.7
20260901042802 80 125 3.0 6.0 0.00 0.00 0.00 49 1018.7
20260901042258 80 120 2.0 5.0 0.00 0.00 0.00 49 1018.6
20260901041757 80 123 2.0 5.0 0.00 0.00 0.00 49 1018.7
20260901041259 80 147 3.0 5.0 0.00 0.00 0.00 49 1018.6
20260901040758 80 109 3.0 5.0 0.00 0.00 0.00 48 1018.5
20260901040301 80 109 4.0 6.0 0.00 0.00 0.00 48 1018.5
20260901035757 81 159 3.0 6.0 0.00 0.00 0.00 47 1018.4
20260901035305 81 110 3.0 9.0 0.00 0.00 0.00 47 1018.4
20260901034758 81 114 3.0 9.0 0.00 0.00 0.00 46 1018.4
20260901034257 81 117 4.0 9.0 0.00 0.00 0.00 46 1018.2
20260901033758 81 130 2.0 6.0 0.00 0.00 0.00 46 1018.2
20260901033450 81 124 2.0 6.0 0.00 0.00 0.00 45 1018.2
20260901033405 81 123 2.0 6.0 0.00 0.00 0.00 45 1018.2
20260901032258 82 104 3.0 6.0 0.00 0.00 0.00 45 1018.0
20260901031759 82 121 3.0 6.0 0.00 0.00 0.00 45 1018.0
20260901031258 82 120 4.0 6.0 0.00 0.00 0.00 45 1017.8
20260901030758 82 154 3.0 6.0 0.00 0.00 0.00 45 1017.7
20260901030259 82 109 3.0 6.0 0.00 0.00 0.00 44 1017.6
20260901025802 83 97 4.0 6.0 0.00 0.00 0.00 43 1017.5
20260901025257 83 107 2.0 5.0 0.00 0.00 0.00 43 1017.5
20260901024757 83 109 3.0 7.0 0.00 0.00 0.00 43 1017.3
20260901024257 82 130 3.0 7.0 0.00 0.00 0.00 43 1017.2
20260901023758 83 157 2.0 4.0 0.00 0.00 0.00 43 1017.2
20260901023301 83 135 2.0 5.0 0.00 0.00 0.00 42 1016.9
20260901022757 84 189 2.0 6.0 0.00 0.00 0.00 41 1016.8
20260901022257 84 171 2.0 6.0 0.00 0.00 0.00 41 1016.7
20260901021759 84 96 2.0 6.0 0.00 0.00 0.00 40 1016.6
20260901021258 85 164 3.0 9.0 0.00 0.00 0.00 40 1016.5
20260901020759 85 149 3.0 9.0 0.00 0.00 0.00 40 1016.5
20260901020533 85 140 2.0 10.0 0.00 0.00 0.00 39 1016.3
20260901020424 85 154 3.0 9.0 0.00 0.00 0.00 40 1016.4
20260901015257 85 131 3.0 10.0 0.00 0.00 0.00 39 1016.3
20260901014758 86 106 3.0 6.0 0.00 0.00 0.00 38 1016.3
20260901014257 86 124 4.0 9.0 0.00 0.00 0.00 38 1016.1
20260901013757 86 141 3.0 9.0 0.00 0.00 0.00 37 1016.1
20260901013618 87 133 2.0 9.0 0.00 0.00 0.00 37 1016.1
20260901012758 87 135 4.0 9.0 0.00 0.00 0.00 36 1015.9
20260901012652 87 149 4.0 9.0 0.00 0.00 0.00 36 1015.9
20260901011758 87 161 3.0 7.0 0.00 0.00 0.00 36 1016.1
20260901011654 88 124 3.0 9.0 0.00 0.00 0.00 35 1015.9
20260901010757 88 135 3.0 11.0 0.00 0.00 0.00 34 1015.9
20260901010258 89 179 3.0 11.0 0.00 0.00 0.00 34 1015.9
20260901010152 89 128 5.0 10.0 0.00 0.00 0.00 34 1015.8
20260901005258 89 154 4.0 14.0 0.00 0.00 0.00 34 1015.9
20260901004800 89 166 4.0 14.0 0.00 0.00 0.00 33 1015.8
20260901004256 89 100 4.0 12.0 0.00 0.00 0.00 33 1015.7
20260901003758 90 144 6.0 12.0 0.00 0.00 0.00 32 1015.7
20260901003258 90 114 5.0 11.0 0.00 0.00 0.00 32 1015.7
20260901003134 91 111 5.0 14.0 0.00 0.00 0.00 31 1015.7
20260901002643 91 110 6.0 15.0 0.00 0.00 0.00 31 1015.7
20260901001757 91 106 7.0 15.0 0.00 0.00 0.00 30 1015.7
20260901001256 91 145 5.0 10.0 0.00 0.00 0.00 31 1015.6
20260901000757 91 141 5.0 13.0 0.00 0.00 0.00 31 1015.7
20260901000624 92 151 5.0 13.0 0.00 0.00 0.00 30 1015.7
20260831235758 92 172 6.0 13.0 0.00 0.00 0.00 30 1015.8
20260831235630 92 104 4.0 11.0 0.00 0.00 0.00 30 1015.8
20260831235103 93 245 6.0 13.0 0.00 0.00 0.00 29 1015.7
20260831234257 93 262 7.0 13.0 0.00 0.00 0.00 29 1015.7
20260831233757 93 185 4.0 14.0 0.00 0.00 0.00 29 1015.7
20260831233300 93 171 6.0 17.0 0.00 0.00 0.00 28 1015.6
20260831232758 93 93 7.0 17.0 0.00 0.00 0.00 29 1015.7
20260831232321 94 97 6.0 15.0 0.00 0.00 0.00 29 1015.7
20260831231918 94 200 6.0 15.0 0.00 0.00 0.00 29 1015.7
20260831231133 94 121 3.0 13.0 0.00 0.00 0.00 29 1015.8
20260831230633 94 133 5.0 13.0 0.00 0.00 0.00 28 1015.9
20260831225758 94 93 6.0 16.0 0.00 0.00 0.00 28 1015.9
20260831225257 94 173 7.0 16.0 0.00 0.00 0.00 29 1015.9
20260831224757 95 100 6.0 17.0 0.00 0.00 0.00 29 1016.1
20260831224258 95 180 5.0 17.0 0.00 0.00 0.00 29 1016.1
20260831224123 95 134 8.0 20.0 0.00 0.00 0.00 29 1015.9
20260831223257 95 131 4.0 20.0 0.00 0.00 0.00 29 1016.1
20260831222758 95 116 8.0 14.0 0.00 0.00 0.00 29 1016.1
20260831222259 95 168 6.0 14.0 0.00 0.00 0.00 29 1016.3
20260831221758 96 118 4.0 12.0 0.00 0.00 0.00 28 1016.2
20260831221258 95 154 5.0 13.0 0.00 0.00 0.00 29 1016.3
20260831220757 95 162 6.0 15.0 0.00 0.00 0.00 28 1016.2
20260831220257 96 113 7.0 15.0 0.00 0.00 0.00 28 1016.2
20260831215758 96 116 4.0 14.0 0.00 0.00 0.00 29 1016.2
20260831215638 95 124 7.0 14.0 0.00 0.00 0.00 29 1016.3
20260831214759 95 96 6.0 19.0 0.00 0.00 0.00 29 1016.4
20260831214257 96 109 5.0 19.0 0.00 0.00 0.00 28 1016.4
20260831213800 97 179 7.0 15.0 0.00 0.00 0.00 29 1016.4
20260831213523 96 99 6.0 12.0 0.00 0.00 0.00 28 1016.5
20260831213422 96 94 5.0 13.0 0.00 0.00 0.00 28 1016.4
20260831212257 96 114 6.0 15.0 0.00 0.00 0.00 28 1016.6
20260831211759 97 133 7.0 15.0 0.00 0.00 0.00 28 1016.7
20260831211257 97 130 4.0 13.0 0.00 0.00 0.00 29 1016.8
20260831210757 96 185 5.0 13.0 0.00 0.00 0.00 30 1016.8
20260831210257 96 152 6.0 17.0 0.00 0.00 0.00 29 1016.8
20260831205757 96 104 6.0 17.0 0.00 0.00 0.00 29 1016.9
20260831205258 96 237 6.0 13.0 0.00 0.00 0.00 28 1016.9
20260831204757 97 99 8.0 13.0 0.00 0.00 0.00 27 1017.1
20260831204259 97 145 5.0 12.0 0.00 0.00 0.00 28 1016.9
20260831203800 97 133 7.0 15.0 0.00 0.00 0.00 28 1017.1
20260831203638 97 83 9.0 15.0 0.00 0.00 0.00 28 1017.2
20260831202757 96 73 8.0 13.0 0.00 0.00 0.00 28 1017.4
20260831202258 97 172 4.0 13.0 0.00 0.00 0.00 28 1017.3
20260831201757 96 179 5.0 13.0 0.00 0.00 0.00 28 1017.5
20260831201257 96 89 6.0 11.0 0.00 0.00 0.00 29 1017.5
20260831200758 97 138 6.0 11.0 0.00 0.00 0.00 29 1017.6
20260831200259 96 113 3.0 12.0 0.00 0.00 0.00 29 1017.7
20260831195757 96 114 4.0 14.0 0.00 0.00 0.00 29 1017.8
20260831195642 96 168 4.0 14.0 0.00 0.00 0.00 29 1017.8
20260831195143 96 175 8.0 14.0 0.00 0.00 0.00 31 1018.1
20260831194256 96 147 4.0 14.0 0.00 0.00 0.00 30 1018.0
20260831193801 96 100 5.0 15.0 0.00 0.00 0.00 30 1017.8
20260831193256 96 134 7.0 15.0 0.00 0.00 0.00 30 1018.0
20260831192757 96 221 6.0 13.0 0.00 0.00 0.00 31 1018.0
20260831192626 96 244 5.0 9.0 0.00 0.00 0.00 31 1018.1
20260831191758 96 259 3.0 12.0 0.00 0.00 0.00 31 1018.1
20260831191258 96 157 4.0 15.0 0.00 0.00 0.00 31 1018.2
20260831190757 95 148 7.0 15.0 0.00 0.00 0.00 32 1018.1
20260831190257 95 125 8.0 15.0 0.00 0.00 0.00 33 1018.2
20260831185759 95 154 6.0 14.0 0.00 0.00 0.00 34 1018.3
20260831185259 95 178 6.0 14.0 0.00 0.00 0.00 36 1018.4
20260831184756 94 223 3.0 11.0 0.00 0.00 0.00 33 1018.3
20260831184256 95 209 6.0 12.0 0.00 0.00 0.00 33 1018.5
20260831184022 94 109 5.0 12.0 0.00 0.00 0.00 37 1018.6
20260831183802 94 109 5.0 12.0 0.00 0.00 0.00 37 1018.6
20260831183258 94 189 6.0 14.0 0.00 0.00 0.00 34 1018.6
20260831183018 94 113 6.0 15.0 0.00 0.00 0.00 36 1018.8
20260831182916 94 227 4.0 14.0 0.00 0.00 0.00 37 1018.6
20260831182015 94 113 4.0 11.0 0.00 0.00 0.00 35 1018.8
20260831181918 94 228 4.0 15.0 0.00 0.00 0.00 35 1018.7
20260831180758 94 152 5.0 14.0 0.00 0.00 0.00 36 1019.0
20260831180256 94 155 5.0 14.0 0.00 0.00 0.00 36 1019.0
20260831175757 94 233 5.0 12.0 0.00 0.00 0.00 38 1019.1
20260831175404 93 213 6.0 11.0 0.00 0.00 0.00 37 1019.2
20260831175332 92 171 5.0 12.0 0.00 0.00 0.00 38 1019.1
20260831174802 93 213 6.0 11.0 0.00 0.00 0.00 37 1019.2
20260831174624 92 175 4.0 11.0 0.00 0.00 0.00 40 1019.2
20260831173757 92 133 5.0 13.0 0.00 0.00 0.00 38 1019.2
20260831173629 93 238 6.0 13.0 0.00 0.00 0.00 40 1019.2
20260831172758 91 168 8.0 11.0 0.00 0.00 0.00 40 1019.3
20260831172257 92 178 5.0 13.0 0.00 0.00 0.00 40 1019.3
20260831171756 91 199 8.0 13.0 0.00 0.00 0.00 42 1019.4
20260831171258 91 151 6.0 11.0 0.00 0.00 0.00 43 1019.3
20260831170756 91 223 3.0 12.0 0.00 0.00 0.00 42 1019.3
20260831170639 90 175 6.0 12.0 0.00 0.00 0.00 44 1019.4
20260831165756 90 123 7.0 13.0 0.00 0.00 0.00 44 1019.4
20260831165257 90 209 7.0 13.0 0.00 0.00 0.00 42 1019.4
20260831165143 89 199 6.0 11.0 0.00 0.00 0.00 44 1019.4
20260831164257 88 206 3.0 11.0 0.00 0.00 0.00 45 1019.5
20260831164140 88 207 7.0 11.0 0.00 0.00 0.00 45 1019.5
20260831163257 88 235 3.0 12.0 0.00 0.00 0.00 46 1019.5
20260831162756 87 197 5.0 12.0 0.00 0.00 0.00 47 1019.5
20260831162301 87 173 3.0 9.0 0.00 0.00 0.00 46 1019.5
20260831161757 87 266 2.0 11.0 0.00 0.00 0.00 48 1019.4
20260831161257 87 241 5.0 11.0 0.00 0.00 0.00 47 1019.4
20260831161025 87 230 5.0 7.0 0.00 0.00 0.00 48 1019.4
20260831160630 86 203 3.0 11.0 0.00 0.00 0.00 48 1019.3
20260831160100 86 278 4.0 11.0 0.00 0.00 0.00 48 1019.2
20260831155256 86 238 6.0 11.0 0.00 0.00 0.00 49 1019.2
20260831154757 85 216 6.0 11.0 0.00 0.00 0.00 49 1019.3
20260831154257 85 257 5.0 10.0 0.00 0.00 0.00 48 1019.3
20260831153757 84 207 4.0 13.0 0.00 0.00 0.00 50 1019.3
20260831153256 83 164 5.0 13.0 0.00 0.00 0.00 51 1019.3
20260831152758 83 185 5.0 10.0 0.00 0.00 0.00 51 1019.3
20260831152258 83 247 3.0 12.0 0.00 0.00 0.00 51 1019.3
20260831151757 82 206 6.0 14.0 0.00 0.00 0.00 53 1019.2
20260831151256 82 141 6.0 14.0 0.00 0.00 0.00 51 1019.3
20260831150756 81 192 6.0 11.0 0.00 0.00 0.00 52 1019.3
20260831150629 81 183 5.0 11.0 0.00 0.00 0.00 53 1019.3
20260831145756 81 173 6.0 11.0 0.00 0.00 0.00 52 1019.3
20260831145258 80 223 4.0 9.0 0.00 0.00 0.00 53 1019.3
20260831144756 80 250 5.0 9.0 0.00 0.00 0.00 53 1019.4
20260831144255 80 250 3.0 7.0 0.00 0.00 0.00 53 1019.4
20260831143759 79 234 5.0 7.0 0.00 0.00 0.00 53 1019.4
20260831143256 79 243 2.0 6.0 0.00 0.00 0.00 54 1019.3
20260831142757 79 238 3.0 10.0 0.00 0.00 0.00 54 1019.3
20260831142258 79 228 4.0 10.0 0.00 0.00 0.00 53 1019.4
20260831141802 78 230 3.0 7.0 0.00 0.00 0.00 54 1019.4
20260831141629 78 248 4.0 7.0 0.00 0.00 0.00 54 1019.3
20260831140757 78 210 3.0 9.0 0.00 0.00 0.00 55 1019.2
20260831140255 77 173 4.0 9.0 0.00 0.00 0.00 56 1019.0
20260831140147 76 206 3.0 6.0 0.00 0.00 0.00 56 1019.1
20260831135256 76 233 2.0 5.0 0.00 0.00 0.00 57 1019.1
20260831134757 76 213 1.0 5.0 0.00 0.00 0.00 58 1019.0
20260831134259 75 216 2.0 4.0 0.00 0.00 0.00 57 1019.0
20260831133757 75 224 2.0 3.0 0.00 0.00 0.00 58 1019.0
20260831133255 74 173 0.0 0.0 0.00 0.00 0.00 59 1018.8
20260831132755 74 162 0.0 0.0 0.00 0.00 0.00 59 1018.7
20260831132306 74 272 0.0 0.0 0.00 0.00 0.00 59 1018.8
20260831131757 74 272 0.0 2.0 0.00 0.00 0.00 59 1018.7
20260831131559 74 275 0.0 2.0 0.00 0.00 0.00 59 1018.6
20260831130756 74 323 0.0 4.0 0.00 0.00 0.00 59 1018.5
20260831130257 74 0 2.0 5.0 0.00 0.00 0.00 59 1018.4
20260831125756 74 254 2.0 11.0 0.00 0.00 0.00 59 1018.3
20260831125257 73 244 5.0 11.0 0.00 0.00 0.00 60 1018.1
20260831124758 72 275 2.0 4.0 0.00 0.00 0.00 61 1018.0
20260831124635 72 283 0.0 4.0 0.00 0.00 0.00 60 1018.1
20260831124025 72 292 0.0 4.0 0.00 0.00 0.00 59 1018.0
20260831123257 73 293 1.0 6.0 0.00 0.00 0.00 59 1017.8
20260831123100 73 266 3.0 6.0 0.00 0.00 0.00 59 1017.7
20260831122637 73 245 2.0 6.0 0.00 0.00 0.00 58 1017.6
20260831121756 73 258 3.0 6.0 0.00 0.00 0.00 58 1017.4
20260831121258 73 220 3.0 7.0 0.00 0.00 0.00 58 1017.4
20260831120757 73 221 4.0 9.0 0.00 0.00 0.00 58 1017.2
20260831120257 73 226 2.0 9.0 0.00 0.00 0.00 58 1016.9
20260831115758 73 223 0.0 4.0 0.00 0.00 0.00 57 1017.1
20260831115257 73 245 1.0 6.0 0.00 0.00 0.00 57 1017.1
20260831115022 74 226 2.0 6.0 0.00 0.00 0.00 57 1016.9
20260831114800 74 226 2.0 6.0 0.00 0.00 0.00 57 1016.9
20260831114257 74 231 4.0 7.0 0.00 0.00 0.00 56 1016.7
20260831113801 74 234 3.0 7.0 0.00 0.00 0.00 56 1016.6
20260831113303 73 213 3.0 5.0 0.00 0.00 0.00 57 1016.7
20260831112801 74 193 3.0 5.0 0.00 0.00 0.00 56 1016.7
20260831112256 74 228 1.0 6.0 0.00 0.00 0.00 55 1016.8
20260831111758 74 202 3.0 9.0 0.00 0.00 0.00 55 1016.8
20260831111517 74 207 4.0 7.0 0.00 0.00 0.00 54 1016.6
20260831111356 74 223 4.0 9.0 0.00 0.00 0.00 55 1016.6
20260831110746 74 217 3.0 9.0 0.00 0.00 0.00 54 1016.6
20260831110528 74 217 3.0 9.0 0.00 0.00 0.00 54 1016.6
20260831110309 74 217 3.0 9.0 0.00 0.00 0.00 54 1016.6
20260831105757 74 248 4.0 9.0 0.00 0.00 0.00 54 1016.7
20260831105259 75 247 5.0 9.0 0.00 0.00 0.00 54 1016.4
20260831104758 75 220 5.0 9.0 0.00 0.00 0.00 53 1016.5
20260831104302 75 233 4.0 11.0 0.00 0.00 0.00 53 1016.5
20260831103801 75 169 4.0 12.0 0.00 0.00 0.00 53 1016.5
20260831103704 75 224 4.0 12.0 0.00 0.00 0.00 53 1016.5
20260831102758 75 199 5.0 13.0 0.00 0.00 0.00 53 1016.5
20260831102258 75 217 6.0 13.0 0.00 0.00 0.00 52 1016.5
20260831101801 76 183 5.0 15.0 0.00 0.00 0.00 51 1016.5
20260831101738 76 158 7.0 15.0 0.00 0.00 0.00 52 1016.5
20260831101119 75 202 6.0 11.0 0.00 0.00 0.00 53 1016.5
20260831100257 75 193 5.0 10.0 0.00 0.00 0.00 52 1016.5
20260831095759 76 196 5.0 10.0 0.00 0.00 0.00 51 1016.6
20260831095717 76 196 7.0 14.0 0.00 0.00 0.00 51 1016.6